Year,Month,Day,Hour,Minute,Value (Times are PST for temperature in C)
2009,07,30,00,00,23.40
2009,07,30,00,01,23.30
2009,07,30,00,02,23.30
2009,07,30,00,03,23.20
2009,07,30,00,04,23.20
2009,07,30,00,05,23.10
2009,07,30,00,06,23.10
2009,07,30,00,07,23.10
2009,07,30,00,08,23.10
2009,07,30,00,09,23.00
2009,07,30,00,10,22.90
2009,07,30,00,11,22.90
2009,07,30,00,12,22.90
2009,07,30,00,13,22.90
2009,07,30,00,14,22.90
2009,07,30,00,15,22.90
2009,07,30,00,16,22.90
2009,07,30,00,17,22.90
2009,07,30,00,18,22.90
2009,07,30,00,19,22.90
2009,07,30,00,20,22.90
2009,07,30,00,21,22.90
2009,07,30,00,22,22.80
2009,07,30,00,23,22.80
2009,07,30,00,24,22.70
2009,07,30,00,25,22.70
2009,07,30,00,26,22.60
2009,07,30,00,27,22.60
2009,07,30,00,28,22.50
2009,07,30,00,29,22.50
2009,07,30,00,30,22.50
2009,07,30,00,31,22.50
2009,07,30,00,32,22.50
2009,07,30,00,33,22.40
2009,07,30,00,34,22.40
2009,07,30,00,35,22.40
2009,07,30,00,36,22.40
2009,07,30,00,37,22.40
2009,07,30,00,38,22.40
2009,07,30,00,39,22.30
2009,07,30,00,40,22.30
2009,07,30,00,41,22.30
2009,07,30,00,42,22.30
2009,07,30,00,43,22.30
2009,07,30,00,44,22.30
2009,07,30,00,45,22.30
2009,07,30,00,46,22.30
2009,07,30,00,47,22.30
2009,07,30,00,48,22.30
2009,07,30,00,49,22.30
2009,07,30,00,50,22.30
2009,07,30,00,51,22.30
2009,07,30,00,52,22.30
2009,07,30,00,53,22.20
2009,07,30,00,54,22.20
2009,07,30,00,55,22.20
2009,07,30,00,56,22.20
2009,07,30,00,57,22.20
2009,07,30,00,58,22.20
2009,07,30,00,59,22.20
2009,07,30,01,00,22.20
2009,07,30,01,01,22.20
2009,07,30,01,02,22.20
2009,07,30,01,03,22.20
2009,07,30,01,04,22.20
2009,07,30,01,05,22.20
2009,07,30,01,06,22.20
2009,07,30,01,07,22.20
2009,07,30,01,08,22.20
2009,07,30,01,09,22.20
2009,07,30,01,10,22.20
2009,07,30,01,11,22.20
2009,07,30,01,12,22.20
2009,07,30,01,13,22.20
2009,07,30,01,14,22.20
2009,07,30,01,15,22.20
2009,07,30,01,16,22.20
2009,07,30,01,17,22.20
2009,07,30,01,18,22.20
2009,07,30,01,19,22.20
2009,07,30,01,20,22.10
2009,07,30,01,21,22.10
2009,07,30,01,22,22.10
2009,07,30,01,23,22.10
2009,07,30,01,24,22.10
2009,07,30,01,25,22.10
2009,07,30,01,26,22.10
2009,07,30,01,27,22.10
2009,07,30,01,28,22.00
2009,07,30,01,29,22.00
2009,07,30,01,30,22.00
2009,07,30,01,31,22.00
2009,07,30,01,32,22.00
2009,07,30,01,33,22.00
2009,07,30,01,34,22.00
2009,07,30,01,35,22.00
2009,07,30,01,36,22.00
2009,07,30,01,37,21.90
2009,07,30,01,38,21.90
2009,07,30,01,39,21.90
2009,07,30,01,40,21.90
2009,07,30,01,41,21.90
2009,07,30,01,42,21.90
2009,07,30,01,43,21.90
2009,07,30,01,44,21.90
2009,07,30,01,45,21.90
2009,07,30,01,46,21.80
2009,07,30,01,47,21.70
2009,07,30,01,48,21.70
2009,07,30,01,49,21.60
2009,07,30,01,50,21.60
2009,07,30,01,51,21.60
2009,07,30,01,52,21.60
2009,07,30,01,53,21.50
2009,07,30,01,54,21.40
2009,07,30,01,55,21.30
2009,07,30,01,56,21.30
2009,07,30,01,57,21.30
2009,07,30,01,58,21.30
2009,07,30,01,59,21.30
2009,07,30,02,00,21.20
2009,07,30,02,01,21.20
2009,07,30,02,02,21.10
2009,07,30,02,03,21.10
2009,07,30,02,04,21.00
2009,07,30,02,05,21.00
2009,07,30,02,06,20.90
2009,07,30,02,07,20.90
2009,07,30,02,08,20.80
2009,07,30,02,09,20.70
2009,07,30,02,10,20.70
2009,07,30,02,11,20.60
2009,07,30,02,12,20.50
2009,07,30,02,13,20.50
2009,07,30,02,14,20.40
2009,07,30,02,15,20.30
2009,07,30,02,16,20.20
2009,07,30,02,17,20.20
2009,07,30,02,18,20.10
2009,07,30,02,19,20.00
2009,07,30,02,20,19.90
2009,07,30,02,21,19.90
2009,07,30,02,22,19.80
2009,07,30,02,23,19.70
2009,07,30,02,24,19.70
2009,07,30,02,25,19.60
2009,07,30,02,26,19.60
2009,07,30,02,27,19.60
2009,07,30,02,28,19.50
2009,07,30,02,29,19.50
2009,07,30,02,30,19.50
2009,07,30,02,31,19.50
2009,07,30,02,32,19.50
2009,07,30,02,33,19.50
2009,07,30,02,34,19.50
2009,07,30,02,35,19.50
2009,07,30,02,36,19.50
2009,07,30,02,37,19.50
2009,07,30,02,38,19.50
2009,07,30,02,39,19.50
2009,07,30,02,40,19.50
2009,07,30,02,41,19.50
2009,07,30,02,42,19.50
2009,07,30,02,43,19.50
2009,07,30,02,44,19.50
2009,07,30,02,45,19.50
2009,07,30,02,46,19.50
2009,07,30,02,47,19.50
2009,07,30,02,48,19.50
2009,07,30,02,49,19.50
2009,07,30,02,50,19.50
2009,07,30,02,51,19.50
2009,07,30,02,52,19.50
2009,07,30,02,53,19.50
2009,07,30,02,54,19.50
2009,07,30,02,55,19.50
2009,07,30,02,56,19.50
2009,07,30,02,57,19.50
2009,07,30,02,58,19.50
2009,07,30,02,59,19.40
2009,07,30,03,00,19.40
2009,07,30,03,01,19.40
2009,07,30,03,02,19.40
2009,07,30,03,03,19.40
2009,07,30,03,04,19.40
2009,07,30,03,05,19.30
2009,07,30,03,06,19.30
2009,07,30,03,07,19.30
2009,07,30,03,08,19.30
2009,07,30,03,09,19.30
2009,07,30,03,10,19.30
2009,07,30,03,11,19.30
2009,07,30,03,12,19.20
2009,07,30,03,13,19.20
2009,07,30,03,14,19.20
2009,07,30,03,15,19.20
2009,07,30,03,16,19.20
2009,07,30,03,17,19.20
2009,07,30,03,18,19.20
2009,07,30,03,19,19.20
2009,07,30,03,20,19.20
2009,07,30,03,21,19.20
2009,07,30,03,22,19.20
2009,07,30,03,23,19.20
2009,07,30,03,24,19.20
2009,07,30,03,25,19.10
2009,07,30,03,26,19.10
2009,07,30,03,27,19.10
2009,07,30,03,28,19.10
2009,07,30,03,29,19.10
2009,07,30,03,30,19.10
2009,07,30,03,31,19.10
2009,07,30,03,32,19.10
2009,07,30,03,33,19.10
2009,07,30,03,34,19.10
2009,07,30,03,35,19.10
2009,07,30,03,36,18.90
2009,07,30,03,37,18.90
2009,07,30,03,38,18.90
2009,07,30,03,39,18.90
2009,07,30,03,40,18.90
2009,07,30,03,41,18.80
2009,07,30,03,42,18.80
2009,07,30,03,43,18.80
2009,07,30,03,44,18.80
2009,07,30,03,45,18.70
2009,07,30,03,46,18.70
2009,07,30,03,47,18.70
2009,07,30,03,48,18.60
2009,07,30,03,49,18.60
2009,07,30,03,50,18.50
2009,07,30,03,51,18.50
2009,07,30,03,52,18.50
2009,07,30,03,53,18.40
2009,07,30,03,54,18.40
2009,07,30,03,55,18.40
2009,07,30,03,56,18.30
2009,07,30,03,57,18.30
2009,07,30,03,58,18.30
2009,07,30,03,59,18.30
2009,07,30,04,00,18.30
2009,07,30,04,01,18.20
2009,07,30,04,02,18.20
2009,07,30,04,03,18.20
2009,07,30,04,04,18.20
2009,07,30,04,05,18.20
2009,07,30,04,06,18.20
2009,07,30,04,07,18.20
2009,07,30,04,08,18.20
2009,07,30,04,09,18.20
2009,07,30,04,10,18.10
2009,07,30,04,11,18.10
2009,07,30,04,12,18.10
2009,07,30,04,13,18.10
2009,07,30,04,14,18.10
2009,07,30,04,15,18.10
2009,07,30,04,16,18.10
2009,07,30,04,17,18.10
2009,07,30,04,18,18.10
2009,07,30,04,19,18.10
2009,07,30,04,20,18.00
2009,07,30,04,21,17.90
2009,07,30,04,22,17.90
2009,07,30,04,23,17.90
2009,07,30,04,24,17.90
2009,07,30,04,25,17.90
2009,07,30,04,26,17.90
2009,07,30,04,27,17.90
2009,07,30,04,28,17.90
2009,07,30,04,29,17.90
2009,07,30,04,30,17.90
2009,07,30,04,31,17.90
2009,07,30,04,32,17.90
2009,07,30,04,33,17.90
2009,07,30,04,34,17.90
2009,07,30,04,35,17.90
2009,07,30,04,36,17.90
2009,07,30,04,37,17.90
2009,07,30,04,38,17.90
2009,07,30,04,39,17.90
2009,07,30,04,40,17.90
2009,07,30,04,41,17.90
2009,07,30,04,42,17.90
2009,07,30,04,43,17.90
2009,07,30,04,44,17.90
2009,07,30,04,45,17.90
2009,07,30,04,46,17.90
2009,07,30,04,47,17.90
2009,07,30,04,48,17.90
2009,07,30,04,49,17.90
2009,07,30,04,50,17.80
2009,07,30,04,51,17.80
2009,07,30,04,52,17.80
2009,07,30,04,53,17.80
2009,07,30,04,54,17.80
2009,07,30,04,55,17.80
2009,07,30,04,56,17.80
2009,07,30,04,57,17.80
2009,07,30,04,58,17.70
2009,07,30,04,59,17.70
2009,07,30,05,00,17.70
2009,07,30,05,01,17.70
2009,07,30,05,02,17.70
2009,07,30,05,03,17.70
2009,07,30,05,04,17.70
2009,07,30,05,05,17.70
2009,07,30,05,06,17.70
2009,07,30,05,07,17.70
2009,07,30,05,08,17.70
2009,07,30,05,09,17.60
2009,07,30,05,10,17.60
2009,07,30,05,11,17.60
2009,07,30,05,12,17.60
2009,07,30,05,13,17.60
2009,07,30,05,14,17.60
2009,07,30,05,15,17.60
2009,07,30,05,16,17.60
2009,07,30,05,17,17.60
2009,07,30,05,18,17.60
2009,07,30,05,19,17.60
2009,07,30,05,20,17.60
2009,07,30,05,21,17.60
2009,07,30,05,22,17.60
2009,07,30,05,23,17.60
2009,07,30,05,24,17.60
2009,07,30,05,25,17.60
2009,07,30,05,26,17.60
2009,07,30,05,27,17.60
2009,07,30,05,28,17.60
2009,07,30,05,29,17.60
2009,07,30,05,30,17.60
2009,07,30,05,31,17.60
2009,07,30,05,32,17.60
2009,07,30,05,33,17.60
2009,07,30,05,34,17.60
2009,07,30,05,35,17.60
2009,07,30,05,36,17.60
2009,07,30,05,37,17.60
2009,07,30,05,38,17.60
2009,07,30,05,39,17.60
2009,07,30,05,40,17.60
2009,07,30,05,41,17.60
2009,07,30,05,42,17.60
2009,07,30,05,43,17.60
2009,07,30,05,44,17.70
2009,07,30,05,45,17.70
2009,07,30,05,46,17.70
2009,07,30,05,47,17.70
2009,07,30,05,48,17.70
2009,07,30,05,49,17.70
2009,07,30,05,50,17.70
2009,07,30,05,51,17.70
2009,07,30,05,52,17.80
2009,07,30,05,53,17.80
2009,07,30,05,54,17.80
2009,07,30,05,55,17.80
2009,07,30,05,56,17.90
2009,07,30,05,57,17.90
2009,07,30,05,58,17.90
2009,07,30,05,59,17.90
2009,07,30,06,00,17.90
2009,07,30,06,01,17.90
2009,07,30,06,02,17.90
2009,07,30,06,03,17.90
2009,07,30,06,04,17.90
2009,07,30,06,05,17.90
2009,07,30,06,06,17.90
2009,07,30,06,07,18.00
2009,07,30,06,08,18.10
2009,07,30,06,09,18.10
2009,07,30,06,10,18.10
2009,07,30,06,11,18.10
2009,07,30,06,12,18.10
2009,07,30,06,13,18.10
2009,07,30,06,14,18.20
2009,07,30,06,15,18.20
2009,07,30,06,16,18.20
2009,07,30,06,17,18.20
2009,07,30,06,18,18.20
2009,07,30,06,19,18.20
2009,07,30,06,20,18.20
2009,07,30,06,21,18.20
2009,07,30,06,22,18.20
2009,07,30,06,23,18.20
2009,07,30,06,24,18.20
2009,07,30,06,25,18.20
2009,07,30,06,26,18.20
2009,07,30,06,27,18.30
2009,07,30,06,28,18.30
2009,07,30,06,29,18.30
2009,07,30,06,30,18.30
2009,07,30,06,31,18.30
2009,07,30,06,32,18.30
2009,07,30,06,33,18.30
2009,07,30,06,34,18.30
2009,07,30,06,35,18.40
2009,07,30,06,36,18.40
2009,07,30,06,37,18.40
2009,07,30,06,38,18.50
2009,07,30,06,39,18.60
2009,07,30,06,40,18.60
2009,07,30,06,41,18.60
2009,07,30,06,42,18.70
2009,07,30,06,43,18.70
2009,07,30,06,44,18.80
2009,07,30,06,45,18.90
2009,07,30,06,46,18.90
2009,07,30,06,47,18.90
2009,07,30,06,48,19.00
2009,07,30,06,49,19.10
2009,07,30,06,50,19.10
2009,07,30,06,51,19.20
2009,07,30,06,52,19.30
2009,07,30,06,53,19.40
2009,07,30,06,54,19.50
2009,07,30,06,55,19.60
2009,07,30,06,56,19.60
2009,07,30,06,57,19.70
2009,07,30,06,58,19.80
2009,07,30,06,59,19.90
2009,07,30,07,00,19.90
2009,07,30,07,01,19.90
2009,07,30,07,02,20.00
2009,07,30,07,03,20.10
2009,07,30,07,04,20.10
2009,07,30,07,05,20.20
2009,07,30,07,06,20.20
2009,07,30,07,07,20.30
2009,07,30,07,08,20.30
2009,07,30,07,09,20.40
2009,07,30,07,10,20.40
2009,07,30,07,11,20.40
2009,07,30,07,12,20.40
2009,07,30,07,13,20.40
2009,07,30,07,14,20.30
2009,07,30,07,15,20.20
2009,07,30,07,16,20.10
2009,07,30,07,17,19.90
2009,07,30,07,18,19.80
2009,07,30,07,19,19.70
2009,07,30,07,20,19.60
2009,07,30,07,21,19.50
2009,07,30,07,22,19.40
2009,07,30,07,23,19.20
2009,07,30,07,24,19.10
2009,07,30,07,25,19.10
2009,07,30,07,26,19.00
2009,07,30,07,27,18.90
2009,07,30,07,28,18.90
2009,07,30,07,29,18.90
2009,07,30,07,30,18.80
2009,07,30,07,31,18.80
2009,07,30,07,32,18.70
2009,07,30,07,33,18.70
2009,07,30,07,34,18.70
2009,07,30,07,35,18.70
2009,07,30,07,36,18.70
2009,07,30,07,37,18.70
2009,07,30,07,38,18.70
2009,07,30,07,39,18.70
2009,07,30,07,40,18.70
2009,07,30,07,41,18.60
2009,07,30,07,42,18.70
2009,07,30,07,43,18.70
2009,07,30,07,44,18.80
2009,07,30,07,45,18.80
2009,07,30,07,46,18.90
2009,07,30,07,47,18.90
2009,07,30,07,48,19.00
2009,07,30,07,49,19.10
2009,07,30,07,50,19.10
2009,07,30,07,51,19.10
2009,07,30,07,52,19.20
2009,07,30,07,53,19.20
2009,07,30,07,54,19.30
2009,07,30,07,55,19.30
2009,07,30,07,56,19.40
2009,07,30,07,57,19.40
2009,07,30,07,58,19.50
2009,07,30,07,59,19.60
2009,07,30,08,00,19.70
2009,07,30,08,01,19.70
2009,07,30,08,02,19.80
2009,07,30,08,03,19.90
2009,07,30,08,04,19.90
2009,07,30,08,05,20.00
2009,07,30,08,06,20.10
2009,07,30,08,07,20.20
2009,07,30,08,08,20.20
2009,07,30,08,09,20.20
2009,07,30,08,10,20.20
2009,07,30,08,11,20.20
2009,07,30,08,12,20.30
2009,07,30,08,13,20.30
2009,07,30,08,14,20.40
2009,07,30,08,15,20.40
2009,07,30,08,16,20.50
2009,07,30,08,17,20.50
2009,07,30,08,18,20.50
2009,07,30,08,19,20.60
2009,07,30,08,20,20.70
2009,07,30,08,21,20.70
2009,07,30,08,22,20.70
2009,07,30,08,23,20.70
2009,07,30,08,24,20.80
2009,07,30,08,25,20.80
2009,07,30,08,26,20.80
2009,07,30,08,27,20.80
2009,07,30,08,28,20.90
2009,07,30,08,29,20.90
2009,07,30,08,30,20.90
2009,07,30,08,31,20.90
2009,07,30,08,32,20.90
2009,07,30,08,33,20.90
2009,07,30,08,34,21.00
2009,07,30,08,35,21.00
2009,07,30,08,36,21.10
2009,07,30,08,37,21.10
2009,07,30,08,38,21.20
2009,07,30,08,39,21.30
2009,07,30,08,40,21.30
2009,07,30,08,41,21.40
2009,07,30,08,42,21.40
2009,07,30,08,43,21.40
2009,07,30,08,44,21.40
2009,07,30,08,45,21.60
2009,07,30,08,46,21.60
2009,07,30,08,47,21.60
2009,07,30,08,48,21.60
2009,07,30,08,49,21.60
2009,07,30,08,50,21.60
2009,07,30,08,51,21.60
2009,07,30,08,52,21.60
2009,07,30,08,53,21.70
2009,07,30,08,54,21.70
2009,07,30,08,55,21.70
2009,07,30,08,56,21.80
2009,07,30,08,57,21.80
2009,07,30,08,58,21.90
2009,07,30,08,59,21.90
2009,07,30,09,00,22.00
2009,07,30,09,01,22.00
2009,07,30,09,02,22.00
2009,07,30,09,03,22.10
2009,07,30,09,04,22.10
2009,07,30,09,05,22.10
2009,07,30,09,06,22.00
2009,07,30,09,07,21.90
2009,07,30,09,08,21.90
2009,07,30,09,09,21.90
2009,07,30,09,10,21.90
2009,07,30,09,11,22.00
2009,07,30,09,12,22.00
2009,07,30,09,13,22.00
2009,07,30,09,14,22.00
2009,07,30,09,15,21.90
2009,07,30,09,16,21.90
2009,07,30,09,17,21.80
2009,07,30,09,18,21.70
2009,07,30,09,19,21.60
2009,07,30,09,20,21.40
2009,07,30,09,21,21.30
2009,07,30,09,22,21.30
2009,07,30,09,23,21.30
2009,07,30,09,24,21.30
2009,07,30,09,25,21.30
2009,07,30,09,26,21.30
2009,07,30,09,27,21.30
2009,07,30,09,28,21.30
2009,07,30,09,29,21.30
2009,07,30,09,30,21.30
2009,07,30,09,31,21.30
2009,07,30,09,32,21.30
2009,07,30,09,33,21.30
2009,07,30,09,34,21.30
2009,07,30,09,35,21.30
2009,07,30,09,36,21.30
2009,07,30,09,37,21.30
2009,07,30,09,38,21.40
2009,07,30,09,39,21.40
2009,07,30,09,40,21.60
2009,07,30,09,41,21.60
2009,07,30,09,42,21.60
2009,07,30,09,43,21.60
2009,07,30,09,44,21.60
2009,07,30,09,45,21.70
2009,07,30,09,46,21.70
2009,07,30,09,47,21.70
2009,07,30,09,48,21.70
2009,07,30,09,49,21.80
2009,07,30,09,50,21.90
2009,07,30,09,51,21.90
2009,07,30,09,52,22.00
2009,07,30,09,53,22.00
2009,07,30,09,54,22.00
2009,07,30,09,55,22.00
2009,07,30,09,56,22.00
2009,07,30,09,57,22.00
2009,07,30,09,58,22.00
2009,07,30,09,59,22.00
2009,07,30,10,00,21.90
2009,07,30,10,01,21.90
2009,07,30,10,02,21.90
2009,07,30,10,03,21.80
2009,07,30,10,04,21.70
2009,07,30,10,05,21.60
2009,07,30,10,06,21.60
2009,07,30,10,07,21.60
2009,07,30,10,08,21.60
2009,07,30,10,09,21.40
2009,07,30,10,10,21.30
2009,07,30,10,11,21.30
2009,07,30,10,12,21.30
2009,07,30,10,13,21.30
2009,07,30,10,14,21.30
2009,07,30,10,15,21.30
2009,07,30,10,16,21.30
2009,07,30,10,17,21.30
2009,07,30,10,18,21.30
2009,07,30,10,19,21.30
2009,07,30,10,20,21.30
2009,07,30,10,21,21.30
2009,07,30,10,22,21.30
2009,07,30,10,23,21.30
2009,07,30,10,24,21.30
2009,07,30,10,25,21.30
2009,07,30,10,26,21.30
2009,07,30,10,27,21.30
2009,07,30,10,28,21.30
2009,07,30,10,29,21.30
2009,07,30,10,30,21.30
2009,07,30,10,31,21.30
2009,07,30,10,32,21.30
2009,07,30,10,33,21.30
2009,07,30,10,34,21.40
2009,07,30,10,35,21.40
2009,07,30,10,36,21.50
2009,07,30,10,37,21.60
2009,07,30,10,38,21.60
2009,07,30,10,39,21.60
2009,07,30,10,40,21.70
2009,07,30,10,41,21.70
2009,07,30,10,42,21.80
2009,07,30,10,43,21.80
2009,07,30,10,44,21.90
2009,07,30,10,45,22.00
2009,07,30,10,46,22.00
2009,07,30,10,47,22.10
2009,07,30,10,48,22.10
2009,07,30,10,49,22.20
2009,07,30,10,50,22.30
2009,07,30,10,51,22.40
2009,07,30,10,52,22.40
2009,07,30,10,53,22.50
2009,07,30,10,54,22.50
2009,07,30,10,55,22.50
2009,07,30,10,56,22.50
2009,07,30,10,57,22.50
2009,07,30,10,58,22.50
2009,07,30,10,59,22.50
2009,07,30,11,00,22.60
2009,07,30,11,01,22.60
2009,07,30,11,02,22.70
2009,07,30,11,03,22.80
2009,07,30,11,04,22.90
2009,07,30,11,05,23.00
2009,07,30,11,06,23.20
2009,07,30,11,07,23.30
2009,07,30,11,08,23.40
2009,07,30,11,09,23.50
2009,07,30,11,10,23.60
2009,07,30,11,11,23.60
2009,07,30,11,12,23.60
2009,07,30,11,13,23.60
2009,07,30,11,14,23.70
2009,07,30,11,15,23.70
2009,07,30,11,16,23.80
2009,07,30,11,17,23.90
2009,07,30,11,18,24.10
2009,07,30,11,19,24.10
2009,07,30,11,20,24.20
2009,07,30,11,21,24.20
2009,07,30,11,22,24.30
2009,07,30,11,23,24.40
2009,07,30,11,24,24.50
2009,07,30,11,25,24.60
2009,07,30,11,26,24.70
2009,07,30,11,27,24.80
2009,07,30,11,28,24.80
2009,07,30,11,29,25.00
2009,07,30,11,30,25.10
2009,07,30,11,31,25.10
2009,07,30,11,32,25.20
2009,07,30,11,33,25.30
2009,07,30,11,34,25.40
2009,07,30,11,35,25.40
2009,07,30,11,36,25.40
2009,07,30,11,37,25.30
2009,07,30,11,38,25.20
2009,07,30,11,39,25.20
2009,07,30,11,40,25.20
2009,07,30,11,41,25.10
2009,07,30,11,42,25.10
2009,07,30,11,43,25.10
2009,07,30,11,44,25.10
2009,07,30,11,45,25.10
2009,07,30,11,46,25.20
2009,07,30,11,47,25.20
2009,07,30,11,48,25.30
2009,07,30,11,49,25.40
2009,07,30,11,50,25.50
2009,07,30,11,51,25.60
2009,07,30,11,52,25.70
2009,07,30,11,53,25.80
2009,07,30,11,54,25.80
2009,07,30,11,55,25.80
2009,07,30,11,56,25.80
2009,07,30,11,57,25.90
2009,07,30,11,58,25.90
2009,07,30,11,59,26.00
2009,07,30,12,00,26.00
2009,07,30,12,01,26.20
2009,07,30,12,02,26.20
2009,07,30,12,03,26.20
2009,07,30,12,04,26.30
2009,07,30,12,05,26.40
2009,07,30,12,06,26.60
2009,07,30,12,07,26.70
2009,07,30,12,08,26.90
2009,07,30,12,09,27.00
2009,07,30,12,10,27.20
2009,07,30,12,11,27.30
2009,07,30,12,12,27.30
2009,07,30,12,13,27.30
2009,07,30,12,14,27.30
2009,07,30,12,15,27.40
2009,07,30,12,16,27.40
2009,07,30,12,17,27.30
2009,07,30,12,18,27.30
2009,07,30,12,19,27.20
2009,07,30,12,20,27.30
2009,07,30,12,21,27.30
2009,07,30,12,22,27.40
2009,07,30,12,23,27.40
2009,07,30,12,24,27.40
2009,07,30,12,25,27.60
2009,07,30,12,26,27.60
2009,07,30,12,27,27.70
2009,07,30,12,28,27.70
2009,07,30,12,29,27.80
2009,07,30,12,30,27.80
2009,07,30,12,31,27.80
2009,07,30,12,32,27.90
2009,07,30,12,33,27.90
2009,07,30,12,34,27.90
2009,07,30,12,35,28.00
2009,07,30,12,36,28.00
2009,07,30,12,37,28.00
2009,07,30,12,38,28.00
2009,07,30,12,39,28.00
2009,07,30,12,40,27.90
2009,07,30,12,41,27.80
2009,07,30,12,42,27.70
2009,07,30,12,43,27.60
2009,07,30,12,44,27.60
2009,07,30,12,45,27.60
2009,07,30,12,46,27.70
2009,07,30,12,47,27.80
2009,07,30,12,48,27.90
2009,07,30,12,49,27.90
2009,07,30,12,50,27.90
2009,07,30,12,51,27.90
2009,07,30,12,52,27.90
2009,07,30,12,53,27.90
2009,07,30,12,54,28.00
2009,07,30,12,55,28.00
2009,07,30,12,56,28.00
2009,07,30,12,57,28.10
2009,07,30,12,58,28.10
2009,07,30,12,59,28.10
2009,07,30,13,00,28.20
2009,07,30,13,01,28.20
2009,07,30,13,02,28.30
2009,07,30,13,03,28.40
2009,07,30,13,04,28.50
2009,07,30,13,05,28.60
2009,07,30,13,06,28.60
2009,07,30,13,07,28.70
2009,07,30,13,08,28.80
2009,07,30,13,09,28.80
2009,07,30,13,10,28.80
2009,07,30,13,11,28.80
2009,07,30,13,12,28.80
2009,07,30,13,13,28.80
2009,07,30,13,14,28.70
2009,07,30,13,15,28.70
2009,07,30,13,16,28.70
2009,07,30,13,17,28.70
2009,07,30,13,18,28.70
2009,07,30,13,19,28.90
2009,07,30,13,20,29.00
2009,07,30,13,21,29.10
2009,07,30,13,22,29.20
2009,07,30,13,23,29.20
2009,07,30,13,24,29.30
2009,07,30,13,25,29.30
2009,07,30,13,26,29.30
2009,07,30,13,27,29.30
2009,07,30,13,28,29.30
2009,07,30,13,29,29.30
2009,07,30,13,30,29.30
2009,07,30,13,31,29.30
2009,07,30,13,32,29.10
2009,07,30,13,33,29.10
2009,07,30,13,34,29.10
2009,07,30,13,35,29.20
2009,07,30,13,36,29.20
2009,07,30,13,37,29.30
2009,07,30,13,38,29.40
2009,07,30,13,39,29.50
2009,07,30,13,40,29.60
2009,07,30,13,41,29.50
2009,07,30,13,42,29.60
2009,07,30,13,43,29.70
2009,07,30,13,44,29.70
2009,07,30,13,45,29.80
2009,07,30,13,46,29.90
2009,07,30,13,47,29.90
2009,07,30,13,48,30.10
2009,07,30,13,49,30.10
2009,07,30,13,50,29.90
2009,07,30,13,51,30.10
2009,07,30,13,52,30.20
2009,07,30,13,53,30.20
2009,07,30,13,54,30.20
2009,07,30,13,55,30.30
2009,07,30,13,56,30.40
2009,07,30,13,57,30.40
2009,07,30,13,58,30.40
2009,07,30,13,59,30.50
2009,07,30,14,00,30.60
2009,07,30,14,01,30.50
2009,07,30,14,02,30.40
2009,07,30,14,03,30.30
2009,07,30,14,04,30.30
2009,07,30,14,05,30.30
2009,07,30,14,06,30.30
2009,07,30,14,07,30.30
2009,07,30,14,08,30.40
2009,07,30,14,09,30.60
2009,07,30,14,10,30.70
2009,07,30,14,11,30.80
2009,07,30,14,12,30.80
2009,07,30,14,13,30.80
2009,07,30,14,14,30.70
2009,07,30,14,15,30.70
2009,07,30,14,16,30.70
2009,07,30,14,17,30.70
2009,07,30,14,18,30.70
2009,07,30,14,19,30.70
2009,07,30,14,20,30.70
2009,07,30,14,21,30.70
2009,07,30,14,22,30.70
2009,07,30,14,23,30.70
2009,07,30,14,24,30.80
2009,07,30,14,25,30.80
2009,07,30,14,26,31.00
2009,07,30,14,27,31.10
2009,07,30,14,28,31.20
2009,07,30,14,29,31.30
2009,07,30,14,30,31.40
2009,07,30,14,31,31.40
2009,07,30,14,32,31.30
2009,07,30,14,33,31.20
2009,07,30,14,34,31.20
2009,07,30,14,35,31.20
2009,07,30,14,36,31.10
2009,07,30,14,37,30.90
2009,07,30,14,38,30.80
2009,07,30,14,39,30.90
2009,07,30,14,40,30.90
2009,07,30,14,41,31.00
2009,07,30,14,42,31.00
2009,07,30,14,43,31.10
2009,07,30,14,44,31.20
2009,07,30,14,45,31.20
2009,07,30,14,46,31.20
2009,07,30,14,47,31.20
2009,07,30,14,48,31.10
2009,07,30,14,49,31.20
2009,07,30,14,50,31.20
2009,07,30,14,51,31.20
2009,07,30,14,52,31.20
2009,07,30,14,53,31.20
2009,07,30,14,54,31.20
2009,07,30,14,55,31.20
2009,07,30,14,56,31.10
2009,07,30,14,57,31.10
2009,07,30,14,58,31.20
2009,07,30,14,59,31.20
2009,07,30,15,00,31.30
2009,07,30,15,01,31.30
2009,07,30,15,02,31.30
2009,07,30,15,03,31.30
2009,07,30,15,04,31.40
2009,07,30,15,05,31.40
2009,07,30,15,06,31.40
2009,07,30,15,07,31.50
2009,07,30,15,08,31.40
2009,07,30,15,09,31.40
2009,07,30,15,10,31.30
2009,07,30,15,11,31.10
2009,07,30,15,12,31.10
2009,07,30,15,13,31.20
2009,07,30,15,14,31.30
2009,07,30,15,15,31.40
2009,07,30,15,16,31.60
2009,07,30,15,17,31.70
2009,07,30,15,18,31.70
2009,07,30,15,19,31.70
2009,07,30,15,20,31.70
2009,07,30,15,21,31.70
2009,07,30,15,22,31.70
2009,07,30,15,23,31.70
2009,07,30,15,24,31.70
2009,07,30,15,25,31.70
2009,07,30,15,26,31.70
2009,07,30,15,27,31.60
2009,07,30,15,28,31.60
2009,07,30,15,29,31.60
2009,07,30,15,30,31.60
2009,07,30,15,31,31.60
2009,07,30,15,32,31.60
2009,07,30,15,33,31.60
2009,07,30,15,34,31.60
2009,07,30,15,35,31.60
2009,07,30,15,36,31.40
2009,07,30,15,37,31.30
2009,07,30,15,38,31.20
2009,07,30,15,39,31.20
2009,07,30,15,40,31.10
2009,07,30,15,41,31.00
2009,07,30,15,42,31.00
2009,07,30,15,43,31.00
2009,07,30,15,44,30.90
2009,07,30,15,45,30.90
2009,07,30,15,46,30.90
2009,07,30,15,47,31.00
2009,07,30,15,48,30.90
2009,07,30,15,49,30.80
2009,07,30,15,50,30.80
2009,07,30,15,51,30.80
2009,07,30,15,52,30.80
2009,07,30,15,53,30.80
2009,07,30,15,54,30.80
2009,07,30,15,55,30.80
2009,07,30,15,56,30.80
2009,07,30,15,57,30.80
2009,07,30,15,58,30.80
2009,07,30,15,59,30.80
2009,07,30,16,00,30.80
2009,07,30,16,01,30.90
2009,07,30,16,02,30.80
2009,07,30,16,03,30.80
2009,07,30,16,04,30.60
2009,07,30,16,05,30.40
2009,07,30,16,06,30.30
2009,07,30,16,07,30.20
2009,07,30,16,08,30.10
2009,07,30,16,09,30.20
2009,07,30,16,10,30.10
2009,07,30,16,11,30.00
2009,07,30,16,12,29.80
2009,07,30,16,13,29.70
2009,07,30,16,14,29.70
2009,07,30,16,15,29.80
2009,07,30,16,16,29.70
2009,07,30,16,17,29.60
2009,07,30,16,18,29.60
2009,07,30,16,19,29.40
2009,07,30,16,20,29.40
2009,07,30,16,21,29.30
2009,07,30,16,22,29.40
2009,07,30,16,23,29.40
2009,07,30,16,24,29.40
2009,07,30,16,25,29.40
2009,07,30,16,26,29.30
2009,07,30,16,27,29.30
2009,07,30,16,28,29.30
2009,07,30,16,29,29.30
2009,07,30,16,30,29.30
2009,07,30,16,31,29.40
2009,07,30,16,32,29.50
2009,07,30,16,33,29.60
2009,07,30,16,34,29.60
2009,07,30,16,35,29.70
2009,07,30,16,36,29.60
2009,07,30,16,37,29.60
2009,07,30,16,38,29.60
2009,07,30,16,39,29.70
2009,07,30,16,40,29.80
2009,07,30,16,41,29.90
2009,07,30,16,42,29.80
2009,07,30,16,43,29.70
2009,07,30,16,44,29.70
2009,07,30,16,45,29.70
2009,07,30,16,46,29.70
2009,07,30,16,47,29.60
2009,07,30,16,48,29.30
2009,07,30,16,49,29.30
2009,07,30,16,50,29.20
2009,07,30,16,51,29.10
2009,07,30,16,52,29.10
2009,07,30,16,53,28.90
2009,07,30,16,54,28.90
2009,07,30,16,55,28.90
2009,07,30,16,56,28.90
2009,07,30,16,57,28.80
2009,07,30,16,58,28.70
2009,07,30,16,59,28.70
2009,07,30,17,00,28.70
2009,07,30,17,01,28.70
2009,07,30,17,02,28.80
2009,07,30,17,03,28.90
2009,07,30,17,04,28.90
2009,07,30,17,05,28.90
2009,07,30,17,06,28.90
2009,07,30,17,07,29.00
2009,07,30,17,08,29.10
2009,07,30,17,09,29.10
2009,07,30,17,10,29.10
2009,07,30,17,11,29.10
2009,07,30,17,12,29.10
2009,07,30,17,13,29.00
2009,07,30,17,14,28.90
2009,07,30,17,15,28.90
2009,07,30,17,16,28.90
2009,07,30,17,17,28.90
2009,07,30,17,18,28.90
2009,07,30,17,19,28.90